Location: *
(45.8589°N, 4.7139°E)
Time: 03:12:22
(UTC+00:00)

Cosmos 2228 - Pass Details

Date: 09 April 2020
Orbit: 588 x 619 km, 82.5° (Epoch: 29 May)

Event Time Altitude Azimuth Distance (km) Brightness Sun altitude
Rises 19:05:57 0° 185° (S) 2,834 6.3 -8.4°
Reaches altitude 10° 19:08:08 10° 184° (S) 1,941 5.4 -8.8°
Maximum altitude 19:12:26 82° 98° (E) 620 3.0 -9.4°
Drops below altitude 10° 19:16:49 10° 11° (N) 1,977 5.8 -10.2°
Sets 19:19:03 0° 10° (N) 2,891 6.7 -10.5°
